ROMMA est une association bénévole à but non lucratif. Votre soutien est indispensable : ADHERER à ROMMA ou FAIRE un DON

Val-d'Isère - (73, Savoie)

Haute-Maurienne (1850 m)   Longitude: 6° 58' 52'' E   Latitude: 45° 26' 53'' N Station partenaire n°93
 

Détail journalier du     <<     >>

Température Precipitation Humidité Vent Dir Rafale Dir. rafale Ensol.
Heure (°C) (mm) (%) (km/h) (km/h) (min)
01:00 3.30596E15E0
02:00 3.305810E16E0
03:00 2.90606E15ESE0
04:00 2.605910E18ESE0
05:00 2.30616E15E0
06:00 2.20609E18E0
07:00 2.605710E18E0
08:00 3.205110E18E60
09:00 4.40397E19OSO60
10:00 6.50416E21N60
11:00 6.60439E21NNE60
12:00 8.30416E23NE60
13:00 7.604510SE39NO60
14:00 8.40468ONO44NNO30
15:00 8.104410E32NNO30
16:00 8.90399ENE32NO60
17:00 8.70418NE48O60
18:00 7.403713NO50ONO60
19:00 7.20388NNE26NNO30
20:00 6.10438NNE26O60
21:00 5.80366SE27NO0
22:00 5.30387NNE26NNO0
23:00 4.90397E21NNE0
minuit 5.40398E29NO0

Graphique du 20-04-2019

 

Serveur OMMA